Location: Newark
(31.5350°N, 35.0986°E)
Time: 15:31:28
(UTC+00:00)

SR - Visible Passes

Search period start: 23 September 2019 00:00
Search period end: 03 October 2019 00:00
Orbit: 576 x 880 km, 66.7° (Epoch: 22 September)

Date Brightness Start Highest point End Pass type
(mag) Time Alt. Az. Time Alt. Az. Time Alt. Az.
23 Sep ? 02:08:00 26° SW 02:10:32 71° WNW 02:15:29 10° NNE visible
24 Sep ? 01:20:33 45° SE 01:21:01 47° ESE 01:25:42 10° NE visible
24 Sep ? 03:00:32 10° W 03:03:24 16° NW 03:06:25 10° NNW visible
25 Sep ? 00:33:00 17° E 00:33:00 17° E 00:35:06 10° ENE visible
25 Sep ? 02:12:27 30° W 02:13:24 33° WNW 02:17:53 10° N visible
26 Sep ? 01:24:47 51° N 01:24:47 51° N 01:28:36 10° NNE visible
27 Sep ? 00:37:01 21° NE 00:37:01 21° NE 00:38:46 10° NE visible
27 Sep ? 02:16:28 17° NW 02:16:28 17° NW 02:19:42 10° NNW visible
28 Sep ? 01:28:37 24° NNW 01:28:37 24° NNW 01:31:04 10° N visible
29 Sep ? 00:40:41 16° NNE 00:40:41 16° NNE 00:41:44 10° NNE visible
30 Sep ? 01:32:08 13° NNW 01:32:08 13° NNW 01:32:59 10° N visible
01 Oct ? 00:44:06 11° N 00:44:06 11° N 00:44:15 10° N visible
